Weather History for London-Corbin, KY

Change the Weather History Date:

Thursday, May 9, 2013

  Actual Average Record
Temperature  
Mean Temperature 65 °F 63 °F  
Max Temperature 80 °F 75 °F 88 °F (1963)
Min Temperature 50 °F 51 °F 33 °F (1976)
Degree Days  
Heating Degree Days 0 4  
Month to date heating degree days 38 40  
Since 1 July heating degree days 4467 4141  
Cooling Degree Days 0 2  
Month to date cooling degree days 1 13  
Year to date cooling degree days 21 39  
Growing Degree Days 14 (Base 50)    
Moisture  
Dew Point 53 °F    
Average Humidity 66    
Maximum Humidity 100    
Minimum Humidity 32    
Precipitation  
Precipitation 0.00 in 0.17 in 0.67 in (2009)
Month to date precipitation 2.87 1.45  
Year to date precipitation 21.34 16.80  
Sea Level Pressure  
Sea Level Pressure 30.05 in    
Wind  
Wind Speed 3 mph (SW)    
Max Wind Speed 18 mph    
Max Gust Speed 15 mph    
Visibility 4 miles    
Events Fog    
T = Trace of Precipitation, MM = Missing Value Source: NWS Daily Summary

Daily Weather History Graph

Daily Weather History Graph

Search for Another Location

Airport:

Trip Planner

Search our weather history database for the weather conditions in past years. The results will help you decide how hot, cold, wet, or windy it might be!

Date:

Astronomy

May. 09, 2013 Rise Set
Actual Time 6:33 AM EDT 8:32 PM EDT
Civil Twilight 6:04 AM EDT 9:01 PM EDT
Nautical Twilight 5:29 AM EDT 9:36 PM EDT
Astronomical Twilight 4:52 AM EDT 10:13 PM EDT
Moon 6:16 AM EDT (5/9) 8:27 PM EDT (5/9)
Length of Visible Light 14h 56m
Length of Day
13h 59m
Waning Crescent, 0% of the Moon is Illuminated
May 9
Waning Crescent
May 9
New
May 18
First Quarter
May 25
Full
May 31
Last Quarter

Hourly Weather History & Observations

Time (EDT) Temp. Dew Point Humidity Pressure Visibility Wind Dir Wind Speed Gust Speed Precip Events Conditions
12:32 AM 55.4 °F 55.4 °F 100% 30.06 in 2.0 mi Calm Calm - N/A   Partly Cloudy
12:37 AM 55.4 °F 55.4 °F 100% 30.05 in 0.8 mi Calm Calm - N/A   Scattered Clouds
12:49 AM 53.6 °F 53.6 °F 100% 30.06 in 0.2 mi Calm Calm - N/A Fog Fog
12:53 AM 54.0 °F 54.0 °F 100% 30.04 in 0.2 mi Calm Calm - N/A Fog Fog
1:50 AM 53.6 °F 53.6 °F 100% 30.06 in 1.5 mi Calm Calm - N/A   Scattered Clouds
1:51 AM 53.1 °F 53.1 °F 100% 30.04 in 1.8 mi Calm Calm - N/A   Scattered Clouds
1:54 AM 55.4 °F 53.6 °F 94% 30.06 in 4.0 mi Calm Calm - N/A   Scattered Clouds
2:15 AM 53.6 °F 53.6 °F 100% 30.04 in 1.8 mi Calm Calm - N/A   Partly Cloudy
2:44 AM 53.6 °F 53.6 °F 100% 30.03 in 1.8 mi SE 3.5 mph - N/A   Scattered Clouds
2:48 AM 53.6 °F 51.8 °F 94% 30.04 in 0.8 mi Calm Calm - N/A   Mist
2:53 AM 53.1 °F 52.0 °F 96% 30.02 in 0.8 mi Calm Calm - N/A   Mist
3:10 AM 53.6 °F 51.8 °F 94% 30.03 in 2.0 mi South 3.5 mph - N/A   Mostly Cloudy
3:17 AM 53.6 °F 51.8 °F 94% 30.03 in 1.0 mi Calm Calm - N/A   Mostly Cloudy
3:25 AM 51.8 °F 51.8 °F 100% 30.03 in 0.5 mi Calm Calm - N/A Fog Fog
3:53 AM 52.0 °F 52.0 °F 100% 30.01 in 0.5 mi Calm Calm - N/A Fog Fog
4:12 AM 51.8 °F 51.8 °F 100% 30.03 in 1.2 mi Calm Calm - N/A   Scattered Clouds
4:21 AM 51.8 °F 51.8 °F 100% 30.04 in 0.8 mi Calm Calm - N/A   Mist
4:27 AM 53.6 °F 51.8 °F 94% 30.04 in 1.2 mi Calm Calm - N/A   Partly Cloudy
4:32 AM 53.6 °F 51.8 °F 94% 30.04 in 3.0 mi Calm Calm - N/A   Partly Cloudy
4:51 AM 51.8 °F 51.8 °F 100% 30.05 in 2.5 mi Calm Calm - 0.01 in   Mostly Cloudy
4:53 AM 52.0 °F 52.0 °F 100% 30.04 in 2.5 mi Calm Calm - 0.01 in   Mostly Cloudy
4:58 AM 51.8 °F 51.8 °F 100% 30.05 in 1.5 mi Calm Calm - N/A   Mostly Cloudy
5:06 AM 51.8 °F 51.8 °F 100% 30.05 in 0.5 mi Calm Calm - N/A Fog Fog
5:53 AM 51.1 °F 50.0 °F 96% 30.04 in 1.0 mi Calm Calm - N/A   Mist
6:05 AM 51.8 °F 50.0 °F 94% 30.05 in 1.8 mi Calm Calm - N/A   Clear
6:16 AM 51.8 °F 50.0 °F 94% 30.06 in 1.0 mi Calm Calm - N/A   Mist
6:34 AM 51.8 °F 50.0 °F 94% 30.07 in 0.2 mi Calm Calm - N/A Fog Fog
6:53 AM 50.0 °F 50.0 °F 100% 30.06 in 0.5 mi Calm Calm - N/A Fog Fog
7:10 AM 51.8 °F 50.0 °F 94% 30.07 in 1.2 mi Calm Calm - N/A   Partly Cloudy
7:14 AM 51.8 °F 51.8 °F 100% 30.07 in 3.0 mi Calm Calm - N/A   Clear
7:53 AM 53.1 °F 53.1 °F 100% 30.08 in 10.0 mi Calm Calm - N/A   Clear
8:53 AM 57.9 °F 55.0 °F 90% 30.09 in 10.0 mi South 5.8 mph - N/A   Clear
9:53 AM 63.0 °F 57.9 °F 84% 30.09 in 10.0 mi Variable 3.5 mph - N/A   Clear
10:53 AM 68.0 °F 59.0 °F 73% 30.09 in 10.0 mi SSW 3.5 mph - N/A   Clear
11:53 AM 73.0 °F 57.9 °F 59% 30.09 in 10.0 mi WNW 4.6 mph - N/A   Clear
1:53 PM 75.0 °F 53.1 °F 46% 30.07 in 10.0 mi West 5.8 mph 16.1 mph N/A   Partly Cloudy
2:53 PM 77.0 °F 51.1 °F 40% 30.06 in 10.0 mi NW 5.8 mph - N/A   Partly Cloudy
4:53 PM 78.1 °F 48.9 °F 36% 30.02 in 10.0 mi West 8.1 mph - N/A   Scattered Clouds
5:53 PM 77.0 °F 53.1 °F 43% 30.02 in 10.0 mi WSW 8.1 mph - N/A   Partly Cloudy
6:53 PM 75.9 °F 52.0 °F 43% 30.01 in 10.0 mi SSW 5.8 mph - N/A   Clear
7:53 PM 73.9 °F 53.1 °F 48% 29.99 in 10.0 mi South 3.5 mph - N/A   Partly Cloudy
8:53 PM 68.0 °F 57.9 °F 70% 30.01 in 10.0 mi Calm Calm - N/A   Clear
9:53 PM 66.0 °F 59.0 °F 78% 30.03 in 10.0 mi Calm Calm - N/A   Clear
10:53 PM 64.0 °F 55.9 °F 75% 30.04 in 10.0 mi Calm Calm - N/A   Clear
11:53 PM 62.1 °F 57.0 °F 84% 30.04 in 10.0 mi Calm Calm - N/A   Partly Cloudy